Regional Weather Roundup
Issued by NWS State College, PA

Home | Current Version | Previous Version | Graphics & Text | Print | Product List | Glossary On
Versions: 1 2 3 4 5 6 7 8 9 10 11 12 13 14 15 16 17 18 19 20 21 22 23 24 25 26 27 28 29 30 31 32 33 34 35 36 37 38 39 40 41 42 43 44 45 46 47 48 49 50
000
ASUS41 KCTP 241403
RWRCTP

REGIONAL WEATHER ROUNDUP
NATIONAL WEATHER SERVICE STATE COLLEGE PA
1000 AM EDT SAT JUN 24 2017

Note: "fair" indicates few or no clouds below 12,000 feet with no
significant weather and/or obstructions to visibility.

* = STATION THAT DOES NOT REPORT PRECIPITATION /E.G. RAIN...SNOW...ETC/
    THUNDER OR FOG.

PAZ002>004-007>009-013>016-020>023-029>032-241500-
WESTERN PENNSYLVANIA

CITY           SKY/WX    TMP DP  RH WIND       PRES   REMARKS
ERIE           SUNNY     71  59  65 W14G20    29.82R
MEADVILLE      SUNNY     70  61  73 W14       29.86R
FRANKLIN*      SUNNY     70  57  64 W9        29.87S
NEW CASTLE     PTSUNNY   71  59  65 W7        29.88R
BEAVER COUNTY  SUNNY     70  61  73 W8        29.89R
BUTLER*        SUNNY     72  61  68 W8        29.88S
PITTSBURGH INT MOSUNNY   71  60  68 W7        29.89R
PITTSBURGH     SUNNY     70  59  68 W10       29.89R
INDIANA*       NOT AVBL
LATROBE        MOSUNNY   70  64  83 W12       29.90R
WASHINGTON CO* MOSUNNY   70  61  73 W8        29.94R
$$

PAZ004>006-010>012-017>019-024>028-033>037-041-042-045-046-049>053-241500-
CENTRAL PENNSYLVANIA

CITY           SKY/WX    TMP DP  RH WIND       PRES   REMARKS
BRADFORD       SUNNY     67  58  72 W14G20    29.84R
DUBOIS         MOSUNNY   68  60  75 W10       29.86R
CLEARFIELD     PTSUNNY   70  61  73 W10       29.85R
JOHNSTOWN      MOSUNNY   67  60  78 W15G22    29.89R
ALTOONA        MOSUNNY   72  61  68 NW15G24   29.86R
STATE COLLEGE  SUNNY     72  61  68 W10       29.83R
WILLIAMSPORT   SUNNY     78  57  48 NW12      29.75R
SELINSGROVE    SUNNY     76  62  62 W12G17    29.77R
FT INDIANTOWN  MOSUNNY   77  65  67 W15       29.76R
CAPITAL CITY   MOSUNNY   79  62  56 NW13G18   29.78R
HARRISBURG     MOSUNNY   78  65  63 W16       29.77R
YORK           SUNNY     78  64  61 NW14      29.79R
$$

PAZ038>040-043-044-047-048-054-055-060>062-067>071-241500-
EASTERN PENNSYLVANIA

CITY           SKY/WX    TMP DP  RH WIND       PRES   REMARKS
SCRANTON       SUNNY     73  60  63 NW9       29.74R
MOUNT POCONO   SUNNY     68  56  65 NW13G25   29.75R
ALLENTOWN      MOSUNNY   77  59  53 NW16G22   29.71R
QUAKERTOWN*    PTSUNNY   77  70  78 W7        29.72R
READING        PTSUNNY   78  69  73 W16G23    29.73R
LANCASTER      CLOUDY    77  69  76 W15G22    29.76R
COATESVILLE    MOSUNNY   77  70  78 NW14G22   29.77R
POTTSTOWN      PTSUNNY   76  70  82 NW9G17    29.74R
BLUE BELL      MOSUNNY   75  70  83 W8G18     29.72R
DOYLESTOWN     PTSUNNY   77  70  79 NW13      29.69R
WILLOW GROVE   NOT AVBL
NORTH PHILA    MOSUNNY   81  71  71 W15G21    29.71R
PHILADELPHIA   MOSUNNY   79  68  69 W12G23    29.72R
$$



USA.gov is the U.S. government's official web portal to all federal, state and local government web resources and services.